This is the latest recevied weather packets stored in our database for station/object S56WDN-10. If no packets are shown the sender has not sent any weather packets the latest 10 day(s).
| Time | Temp. | Humidity | Pressure | Rain* | Wind** | Luminosity | Snow |
|---|---|---|---|---|---|---|---|
| 1777545433 | 13.33° C | 43% | 1026.8 hPa | 0 mm | - | - | - |
| 1777545133 | 13.33° C | 42% | 1026.7 hPa | 0 mm | - | - | - |
| 1777544833 | 13.89° C | 42% | 1026.8 hPa | 0 mm | - | - | - |
| 1777544533 | 13.89° C | 46% | 1026.8 hPa | 0 mm | - | - | - |
| 1777544233 | 13.33° C | 45% | 1026.8 hPa | 0 mm | - | - | - |
| 1777543933 | 13.33° C | 47% | 1026.9 hPa | 0 mm | - | - | - |
| 1777543633 | 13.33° C | 44% | 1026.9 hPa | 0 mm | - | - | - |
| 1777543333 | 13.33° C | 46% | 1027 hPa | 0 mm | - | - | - |
| 1777543033 | 13.33° C | 47% | 1027.1 hPa | 0 mm | - | - | - |
| 1777542733 | 12.78° C | 48% | 1027 hPa | 0 mm | - | - | - |
| 1777542433 | 12.78° C | 46% | 1027.1 hPa | 0 mm | - | - | - |
| 1777542133 | 12.78° C | 48% | 1027.1 hPa | 0 mm | - | - | - |
| 1777541833 | 12.78° C | 49% | 1027.1 hPa | 0 mm | - | - | - |
| 1777541533 | 12.78° C | 50% | 1027.2 hPa | 0 mm | - | - | - |
| 1777541233 | 12.78° C | 49% | 1027.2 hPa | 0 mm | - | - | - |
| 1777540933 | 12.78° C | 49% | 1027.3 hPa | 0 mm | - | - | - |
| 1777540633 | 12.78° C | 52% | 1027.3 hPa | 0 mm | - | - | - |
| 1777540333 | 12.22° C | 52% | 1027.4 hPa | 0 mm | - | - | - |
| 1777540033 | 12.22° C | 54% | 1027.3 hPa | 0 mm | - | - | - |
| 1777539733 | 11.67° C | 54% | 1027.3 hPa | 0 mm | - | - | - |
| 1777539433 | 11.67° C | 55% | 1027.3 hPa | 0 mm | - | - | - |
| 1777539133 | 11.11° C | 57% | 1027.4 hPa | 0 mm | - | - | - |
| 1777538833 | 11.11° C | 58% | 1027.4 hPa | 0 mm | - | - | - |
| 1777538533 | 10.56° C | 58% | 1027.3 hPa | 0 mm | - | - | - |
| 1777538233 | 10.56° C | 60% | 1027.3 hPa | 0 mm | - | - | - |
* Rain latest hour (hover to see other rain measurements)
** Current wind speed in m/s (hover to see current wind gust speed)